Tracking 21076 objects as of 7-Aug-2020
HD Live streaming from Space Station
objects crossing your sky now

ARIANE 1 DEB

Track ARIANE 1 DEB now!
10-day predictions


NORAD ID: 17429
Int'l Code: 1986-019FQ
Perigee: 689.4 km
Apogee: 780.0 km
Inclination: 99.1 °
Period: 99.4 minutes
Semi major axis: 7105 km
RCS: 0.0335 m2 (small)
Launch date: February 22, 1986
Source: France (FR)
Launch site: FRENCH GUIANA (FRGUI)

Note: This is SATELLITE DEBRIS
aabbcc
Your satellite tracking list
Your tracking list is empty




NASA's NSSDC Master Catalog

Two Line Element Set (TLE):
1 17429U 86019FQ  20220.38385113  .00000403  00000-0  11664-3 0  9993
2 17429  99.0920 262.3976 0063804 324.4594  35.2355 14.49410996760004
Source of the keplerian elements: AFSPC